BHE178 ZBAD-ZWWW

Flight info

Callsign BHE178
Flight time N/A
Altitude 32100
Route PEGSO7F PEGSO B215 IBANO G470 QTV W99 FKG B215 WUR
Aircraft B739/M-SDE2E3FGHIRWXY/LB1

Departure

Time 2026-05-05 04:45
Airport Beijing Daxing International Airport (ZBAD)

Arrival

Time N/A
Airport Ürümqi Tianshan International Airport (ZWWW)
Time Latitude Longitude Altitude Speed Heading
2026-05-05 04:20 39.50893 116.40672 89 ft 0 kts 142°
2026-05-05 04:35 39.50895 116.40670 84 ft 2 kts 142°
2026-05-05 04:35 39.50916 116.40650 89 ft 4 kts 148°
2026-05-05 04:35 39.50939 116.40634 89 ft 4 kts 163°
2026-05-05 04:36 39.50963 116.40632 86 ft 4 kts 218°
2026-05-05 04:36 39.50968 116.40639 89 ft 0 kts 264°
2026-05-05 04:38 39.50968 116.40636 85 ft 1 kts 264°
2026-05-05 04:38 39.50966 116.40610 87 ft 5 kts 263°
2026-05-05 04:38 39.50959 116.40535 84 ft 12 kts 263°
2026-05-05 04:38 39.50948 116.40427 88 ft 12 kts 262°
2026-05-05 04:39 39.50937 116.40321 87 ft 12 kts 262°
2026-05-05 04:39 39.50927 116.40218 84 ft 11 kts 264°
2026-05-05 04:39 39.50919 116.40117 86 ft 11 kts 263°
2026-05-05 04:39 39.50910 116.40019 85 ft 11 kts 269°
2026-05-05 04:40 39.50964 116.39970 88 ft 10 kts 352°
2026-05-05 04:40 39.51035 116.39958 89 ft 10 kts 351°
2026-05-05 04:40 39.51040 116.39957 88 ft 10 kts 351°
2026-05-05 04:41 39.51079 116.39950 88 ft 10 kts 353°
2026-05-05 04:41 39.51169 116.39936 88 ft 16 kts 353°
2026-05-05 04:41 39.51286 116.39919 77 ft 17 kts 354°
2026-05-05 04:42 39.51398 116.39903 88 ft 15 kts 353°
2026-05-05 04:42 39.51502 116.39885 88 ft 15 kts 352°
2026-05-05 04:42 39.51603 116.39869 87 ft 14 kts 353°
2026-05-05 04:42 39.51699 116.39854 89 ft 14 kts 353°
2026-05-05 04:43 39.51787 116.39825 89 ft 13 kts 317°
2026-05-05 04:43 39.51791 116.39714 93 ft 13 kts 259°
2026-05-05 04:43 39.51750 116.39626 96 ft 11 kts 189°
2026-05-05 04:43 39.51719 116.39627 97 ft 0 kts 173°
2026-05-05 04:44 39.51631 116.39641 97 ft 42 kts 173°
2026-05-05 04:44 39.51101 116.39724 94 ft 109 kts 173°
2026-05-05 04:44 39.50157 116.39874 98 ft 161 kts 173°
2026-05-05 04:44 39.49010 116.40052 612 ft 163 kts 174°
2026-05-05 04:45 39.48756 116.40090 755 ft 162 kts 174°